Flag for Canada Weather past 2 weeks in Burlington, Ontario, Canada

Now
47 °F

Cool.


Feels Like: 47 °F
Forecast: N/A
Wind: 2 mph from Southeast

Location: Burlington Piers

Current Time: Apr 27, 2015 at 5:06:01 PM

Latest Report: Apr 27, 2015 at 4:00 PM


Visibility: N/A

Pressure: 29.92 "Hg

Humidity: 63%

Dew point: 35 °F

Location of BurlingtonLocation

Historic Weather in Burlington — Graph

°F

Burlington temperature yesterday

Maximum temperature yesterday: 50 °F (at 8:00 PM)
Minimum temperature yesterday: 39 °F (at 4:00 AM)
Average temperature yesterday: 43 °F

Past Weeks' High & Low Weather Summary

 TemperatureHumidityPressure
High75 °F (Apr 13, 4:00 PM)100% (Apr 20, 4:00 AM)30.41 "Hg (Apr 20, 4:00 AM)
Low31 °F (Apr 23, 9:00 AM)14% (Apr 18, 6:00 PM)29.35 "Hg (Apr 20, 5:00 PM)
Average45 °F62%29.94 "Hg
* Reported Apr 12 4:00 PM — Apr 27 4:00 PM, Burlington, Weather by CustomWeather, © 2015

Note: Actual official high and low records may vary slightly from our data, if they occured in-between our weather recording intervals... More about our weather records

Advertising

Burlington weather history for previous 24 hours

 ConditionsComfort  
Time TempWeatherWind HumidityBarometerVisibility
4:00 PM
Mon, Apr 27
47 °FCool.2 mph63%29.92 "HgN/A
3:00 PM44 °FQuite cool.6 mph69%29.92 "HgN/A
2:00 PM44 °FQuite cool.8 mph69%29.90 "HgN/A
1:00 PM46 °FCool.9 mph64%29.91 "HgN/A
12:00 PM45 °FQuite cool.10 mph65%29.89 "HgN/A
11:00 AM43 °FQuite cool.15 mph64%29.89 "HgN/A
10:00 AM41 °FQuite cool.15 mph68%29.89 "HgN/A
9:00 AM41 °FQuite cool.14 mph68%29.87 "HgN/A
8:00 AM41 °FQuite cool.10 mph76%29.85 "HgN/A
7:00 AM41 °FQuite cool.12 mph76%29.84 "HgN/A
6:00 AM42 °FQuite cool.8 mph77%29.83 "HgN/A
5:00 AM44 °FQuite cool.7 mph73%29.81 "HgN/A
4:00 AM45 °FQuite cool.8 mph70%29.80 "HgN/A
3:00 AM45 °FQuite cool.6 mph67%29.80 "HgN/A
2:00 AM45 °FCool.5 mph65%29.81 "HgN/A
1:00 AM45 °FCool.7 mph62%29.81 "HgN/A
12:00 AM46 °FCool.8 mph62%29.82 "HgN/A
11:00 PM
Sun, Apr 26
46 °FCool.10 mph61%29.83 "HgN/A
10:00 PM48 °FCool.6 mph52%29.83 "HgN/A
9:00 PM48 °FCool.10 mph50%29.83 "HgN/A
8:00 PM50 °FCool.14 mph46%29.83 "HgN/A
7:00 PM47 °FCool.2 mph60%29.82 "HgN/A
6:00 PM44 °FQuite cool.2 mph65%29.82 "HgN/A
5:00 PM44 °FQuite cool.6 mph62%29.81 "HgN/A
Weather by CustomWeather, © 2015

See weather overviewHow to use our weather pages